User: anonymous   Login
Location: Mentone
(34.5413°N, 85.5351°W)
Time: 19:39:14
(UTC-06:00)
Language:

NOSS 2-2 (E) - Orbit

View from above orbital plane
View from above orbital plane
View from above satellite
View from above satellite

Ground track
Ground track

The orbit data is extracted from the following two-line orbital elements,

1 21809U 91076E   16042.80704614 0.00000320  00000-0  12537-3 0    05
2 21809  63.3600 286.8806 0708000  17.0213 342.9787 13.41238340    06
Epoch (UTC): 11 February 2016 19:22:08
Eccentricity: 0.0708000
inclination: 63.3600°
perigee height: 575 km
apogee height: 1634 km
right ascension of ascending node: 286.8806°
argument of perigee: 17.0213°
revolutions per day: 13.41238340
mean anomaly at epoch: 342.9787°
orbit number at epoch: 0

The dashed part of the orbit path shows where the satellite is in the earth's shadow,  

DLR